Time,TemperatureF,DewpointF,PressureIn,WindDirection,WindDirectionDegrees,WindSpeedMPH,WindSpeedGustMPH,Humidity,HourlyPrecipIn,Conditions,Clouds,dailyrainin,SoftwareType,DateUTC
2013-02-25 00:00:00,31.0,-99.9,-100.00,NNW,334,2.0,4.0,-999,-99.99,,,-99.99,,2013-02-25 06:00:00,
2013-02-25 00:32:00,31.0,-99.9,-100.00,NNW,334,2.0,4.0,-999,-99.99,,,-99.99,,2013-02-25 06:32:00,
2013-02-25 00:42:00,31.0,-99.9,-100.00,NNW,334,2.0,4.0,-999,-99.99,,,-99.99,,2013-02-25 06:42:00,
2013-02-25 00:52:00,31.0,-99.9,-100.00,NNW,334,2.0,4.0,-999,-99.99,,,-99.99,,2013-02-25 06:52:00,
2013-02-25 01:00:00,32.0,-99.9,-100.00,NW,315,3.0,4.0,-999,-99.99,,,-99.99,,2013-02-25 07:00:00,
2013-02-25 01:52:00,32.0,-99.9,-100.00,NW,315,3.0,4.0,-999,-99.99,,,-99.99,,2013-02-25 07:52:00,
2013-02-25 02:00:00,32.0,-99.9,-100.00,NNW,331,2.0,3.0,-999,-99.99,,,-99.99,,2013-02-25 08:00:00,
2013-02-25 02:32:00,32.0,-99.9,-100.00,NNW,331,2.0,3.0,-999,-99.99,,,-99.99,,2013-02-25 08:32:00,
2013-02-25 02:42:00,32.0,-99.9,-100.00,NNW,331,2.0,3.0,-999,-99.99,,,-99.99,,2013-02-25 08:42:00,
2013-02-25 02:52:00,32.0,-99.9,-100.00,NNW,331,2.0,3.0,-999,-99.99,,,-99.99,,2013-02-25 08:52:00,
2013-02-25 03:00:00,32.0,-99.9,-100.00,NNW,345,0.0,1.0,-999,-99.99,,,-99.99,,2013-02-25 09:00:00,
2013-02-25 03:32:00,32.0,-99.9,-100.00,NNW,345,0.0,1.0,-999,-99.99,,,-99.99,,2013-02-25 09:32:00,
2013-02-25 03:42:00,32.0,-99.9,-100.00,NNW,345,0.0,1.0,-999,-99.99,,,-99.99,,2013-02-25 09:42:00,
2013-02-25 03:52:00,32.0,-99.9,-100.00,NNW,345,0.0,1.0,-999,-99.99,,,-99.99,,2013-02-25 09:52:00,
2013-02-25 04:00:00,29.0,-99.9,-100.00,NE,39,1.0,2.0,-999,-99.99,,,-99.99,,2013-02-25 10:00:00,
2013-02-25 04:32:00,29.0,-99.9,-100.00,NE,39,1.0,2.0,-999,-99.99,,,-99.99,,2013-02-25 10:32:00,
2013-02-25 04:42:00,29.0,-99.9,-100.00,NE,39,1.0,2.0,-999,-99.99,,,-99.99,,2013-02-25 10:42:00,
2013-02-25 04:52:00,29.0,-99.9,-100.00,NE,39,1.0,2.0,-999,-99.99,,,-99.99,,2013-02-25 10:52:00,
2013-02-25 05:00:00,29.0,-99.9,-100.00,NNW,335,5.0,6.0,-999,-99.99,,,-99.99,,2013-02-25 11:00:00,
2013-02-25 05:32:00,29.0,-99.9,-100.00,NNW,335,5.0,6.0,-999,-99.99,,,-99.99,,2013-02-25 11:32:00,
2013-02-25 05:42:00,29.0,-99.9,-100.00,NNW,335,5.0,6.0,-999,-99.99,,,-99.99,,2013-02-25 11:42:00,
2013-02-25 05:52:00,29.0,-99.9,-100.00,NNW,335,5.0,6.0,-999,-99.99,,,-99.99,,2013-02-25 11:52:00,
2013-02-25 06:00:00,29.0,-99.9,-100.00,NW,312,2.0,4.0,-999,-99.99,,,-99.99,,2013-02-25 12:00:00,
2013-02-25 06:32:00,29.0,-99.9,-100.00,NW,312,2.0,4.0,-999,-99.99,,,-99.99,,2013-02-25 12:32:00,
2013-02-25 06:43:00,29.0,-99.9,-100.00,NW,312,2.0,4.0,-999,-99.99,,,-99.99,,2013-02-25 12:43:00,
2013-02-25 06:57:00,29.0,-99.9,-100.00,NW,312,2.0,4.0,-999,-99.99,,,-99.99,,2013-02-25 12:57:00,
2013-02-25 07:00:00,29.0,-99.9,-100.00,NW,305,0.0,2.0,-999,-99.99,,,-99.99,,2013-02-25 13:00:00,
2013-02-25 07:32:00,29.0,-99.9,-100.00,NW,305,0.0,2.0,-999,-99.99,,,-99.99,,2013-02-25 13:32:00,
2013-02-25 07:42:00,29.0,-99.9,-100.00,NW,305,0.0,2.0,-999,-99.99,,,-99.99,,2013-02-25 13:42:00,
2013-02-25 07:53:00,29.0,-99.9,-100.00,NW,305,0.0,2.0,-999,-99.99,,,-99.99,,2013-02-25 13:53:00,
2013-02-25 08:00:00,32.0,-99.9,-100.00,NE,46,0.0,2.0,-999,-99.99,,,-99.99,,2013-02-25 14:00:00,
2013-02-25 08:32:00,32.0,-99.9,-100.00,NE,46,0.0,2.0,-999,-99.99,,,-99.99,,2013-02-25 14:32:00,
2013-02-25 08:42:00,32.0,-99.9,-100.00,NE,46,0.0,2.0,-999,-99.99,,,-99.99,,2013-02-25 14:42:00,
2013-02-25 08:52:00,32.0,-99.9,-100.00,NE,46,0.0,2.0,-999,-99.99,,,-99.99,,2013-02-25 14:52:00,
2013-02-25 09:00:00,32.0,-99.9,-100.00,North,9,0.0,4.0,-999,-99.99,,,-99.99,,2013-02-25 15:00:00,
2013-02-25 09:32:00,32.0,-99.9,-100.00,North,9,0.0,4.0,-999,-99.99,,,-99.99,,2013-02-25 15:32:00,
2013-02-25 09:42:00,32.0,-99.9,-100.00,North,9,0.0,4.0,-999,-99.99,,,-99.99,,2013-02-25 15:42:00,
2013-02-25 09:52:00,32.0,-99.9,-100.00,North,9,0.0,4.0,-999,-99.99,,,-99.99,,2013-02-25 15:52:00,
2013-02-25 10:00:00,33.0,-99.9,-100.00,NNW,328,0.0,2.0,-999,-99.99,,,-99.99,,2013-02-25 16:00:00,
2013-02-25 10:32:00,33.0,-99.9,-100.00,NNW,328,0.0,2.0,-999,-99.99,,,-99.99,,2013-02-25 16:32:00,
2013-02-25 10:42:00,33.0,-99.9,-100.00,NNW,328,0.0,2.0,-999,-99.99,,,-99.99,,2013-02-25 16:42:00,
2013-02-25 10:52:00,33.0,-99.9,-100.00,NNW,328,0.0,2.0,-999,-99.99,,,-99.99,,2013-02-25 16:52:00,
2013-02-25 11:00:00,36.0,-99.9,-100.00,NNE,14,6.0,10.0,-999,-99.99,,,-99.99,,2013-02-25 17:00:00,
2013-02-25 11:32:00,36.0,-99.9,-100.00,NNE,14,6.0,10.0,-999,-99.99,,,-99.99,,2013-02-25 17:32:00,
2013-02-25 11:42:00,36.0,-99.9,-100.00,NNE,14,6.0,10.0,-999,-99.99,,,-99.99,,2013-02-25 17:42:00,
2013-02-25 11:52:00,36.0,-99.9,-100.00,NNE,14,6.0,10.0,-999,-99.99,,,-99.99,,2013-02-25 17:52:00,
2013-02-25 12:00:00,36.0,-99.9,-100.00,NW,324,6.0,9.0,-999,-99.99,,,-99.99,,2013-02-25 18:00:00,
2013-02-25 12:33:00,36.0,-99.9,-100.00,NW,324,6.0,9.0,-999,-99.99,,,-99.99,,2013-02-25 18:33:00,
2013-02-25 12:42:00,36.0,-99.9,-100.00,NW,324,6.0,9.0,-999,-99.99,,,-99.99,,2013-02-25 18:42:00,
2013-02-25 12:52:00,36.0,-99.9,-100.00,NW,324,6.0,9.0,-999,-99.99,,,-99.99,,2013-02-25 18:52:00,
2013-02-25 13:00:00,36.0,-99.9,-100.00,NW,324,5.0,10.0,-999,-99.99,,,-99.99,,2013-02-25 19:00:00,
2013-02-25 13:32:00,36.0,-99.9,-100.00,NW,324,5.0,10.0,-999,-99.99,,,-99.99,,2013-02-25 19:32:00,
2013-02-25 13:42:00,36.0,-99.9,-100.00,NW,324,5.0,10.0,-999,-99.99,,,-99.99,,2013-02-25 19:42:00,
2013-02-25 13:52:00,36.0,-99.9,-100.00,NW,324,5.0,10.0,-999,-99.99,,,-99.99,,2013-02-25 19:52:00,
2013-02-25 14:00:00,36.0,-99.9,-100.00,NNW,348,4.0,7.0,-999,-99.99,,,-99.99,,2013-02-25 20:00:00,
2013-02-25 14:32:00,36.0,-99.9,-100.00,NNW,348,4.0,7.0,-999,-99.99,,,-99.99,,2013-02-25 20:32:00,
2013-02-25 14:42:00,36.0,-99.9,-100.00,NNW,348,4.0,7.0,-999,-99.99,,,-99.99,,2013-02-25 20:42:00,
2013-02-25 14:52:00,36.0,-99.9,-100.00,NNW,348,4.0,7.0,-999,-99.99,,,-99.99,,2013-02-25 20:52:00,
2013-02-25 15:00:00,36.0,-99.9,-100.00,North,3,3.0,10.0,-999,-99.99,,,-99.99,,2013-02-25 21:00:00,
2013-02-25 15:32:00,36.0,-99.9,-100.00,North,3,3.0,10.0,-999,-99.99,,,-99.99,,2013-02-25 21:32:00,
2013-02-25 15:42:00,36.0,-99.9,-100.00,North,3,3.0,10.0,-999,-99.99,,,-99.99,,2013-02-25 21:42:00,
2013-02-25 15:52:00,36.0,-99.9,-100.00,North,3,3.0,10.0,-999,-99.99,,,-99.99,,2013-02-25 21:52:00,
2013-02-25 16:00:00,36.0,-99.9,-100.00,NE,50,3.0,10.0,-999,-99.99,,,-99.99,,2013-02-25 22:00:00,
2013-02-25 16:32:00,36.0,-99.9,-100.00,NE,50,3.0,10.0,-999,-99.99,,,-99.99,,2013-02-25 22:32:00,
2013-02-25 16:42:00,36.0,-99.9,-100.00,NE,50,3.0,10.0,-999,-99.99,,,-99.99,,2013-02-25 22:42:00,
2013-02-25 16:52:00,36.0,-99.9,-100.00,NE,50,3.0,10.0,-999,-99.99,,,-99.99,,2013-02-25 22:52:00,
2013-02-25 17:00:00,35.0,-99.9,-100.00,NW,319,7.0,8.0,-999,-99.99,,,-99.99,,2013-02-25 23:00:00,
2013-02-25 17:32:00,35.0,-99.9,-100.00,NW,319,7.0,8.0,-999,-99.99,,,-99.99,,2013-02-25 23:32:00,
2013-02-25 17:42:00,35.0,-99.9,-100.00,NW,319,7.0,8.0,-999,-99.99,,,-99.99,,2013-02-25 23:42:00,
2013-02-25 17:52:00,35.0,-99.9,-100.00,NW,319,7.0,8.0,-999,-99.99,,,-99.99,,2013-02-25 23:52:00,
2013-02-25 18:00:00,34.0,-99.9,-100.00,NNW,344,5.0,9.0,-999,-99.99,,,-99.99,,2013-02-26 00:00:00,
2013-02-25 18:32:00,34.0,-99.9,-100.00,NNW,344,5.0,9.0,-999,-99.99,,,-99.99,,2013-02-26 00:32:00,
2013-02-25 18:42:00,34.0,-99.9,-100.00,NNW,344,5.0,9.0,-999,-99.99,,,-99.99,,2013-02-26 00:42:00,
2013-02-25 18:52:00,34.0,-99.9,-100.00,NNW,344,5.0,9.0,-999,-99.99,,,-99.99,,2013-02-26 00:52:00,
2013-02-25 19:00:00,33.0,-99.9,-100.00,NNW,340,1.0,6.0,-999,-99.99,,,-99.99,,2013-02-26 01:00:00,
2013-02-25 19:32:00,33.0,-99.9,-100.00,NNW,340,1.0,6.0,-999,-99.99,,,-99.99,,2013-02-26 01:32:00,
2013-02-25 19:42:00,33.0,-99.9,-100.00,NNW,340,1.0,6.0,-999,-99.99,,,-99.99,,2013-02-26 01:42:00,
2013-02-25 19:52:00,33.0,-99.9,-100.00,NNW,340,1.0,6.0,-999,-99.99,,,-99.99,,2013-02-26 01:52:00,
2013-02-25 20:00:00,32.0,-99.9,-100.00,NW,306,5.0,8.0,-999,-99.99,,,-99.99,,2013-02-26 02:00:00,
2013-02-25 20:32:00,32.0,-99.9,-100.00,NW,306,5.0,8.0,-999,-99.99,,,-99.99,,2013-02-26 02:32:00,
2013-02-25 20:42:00,32.0,-99.9,-100.00,NW,306,5.0,8.0,-999,-99.99,,,-99.99,,2013-02-26 02:42:00,
2013-02-25 20:52:00,32.0,-99.9,-100.00,NW,306,5.0,8.0,-999,-99.99,,,-99.99,,2013-02-26 02:52:00,
2013-02-25 21:00:00,31.0,-99.9,-100.00,NNW,343,10.0,11.0,-999,-99.99,,,-99.99,,2013-02-26 03:00:00,
2013-02-25 21:32:00,31.0,-99.9,-100.00,NNW,343,10.0,11.0,-999,-99.99,,,-99.99,,2013-02-26 03:32:00,
2013-02-25 21:42:00,31.0,-99.9,-100.00,NNW,343,10.0,11.0,-999,-99.99,,,-99.99,,2013-02-26 03:42:00,
2013-02-25 21:52:00,31.0,-99.9,-100.00,NNW,343,10.0,11.0,-999,-99.99,,,-99.99,,2013-02-26 03:52:00,
2013-02-25 22:00:00,30.0,-99.9,-100.00,NE,52,0.0,11.0,-999,-99.99,,,-99.99,,2013-02-26 04:00:00,
2013-02-25 22:32:00,30.0,-99.9,-100.00,NE,52,0.0,11.0,-999,-99.99,,,-99.99,,2013-02-26 04:32:00,
2013-02-25 22:43:00,30.0,-99.9,-100.00,NE,52,0.0,11.0,-999,-99.99,,,-99.99,,2013-02-26 04:43:00,
2013-02-25 22:52:00,30.0,-99.9,-100.00,NE,52,0.0,11.0,-999,-99.99,,,-99.99,,2013-02-26 04:52:00,
2013-02-25 23:00:00,29.0,-99.9,-100.00,NNW,338,10.0,11.0,-999,-99.99,,,-99.99,,2013-02-26 05:00:00,
2013-02-25 23:32:00,29.0,-99.9,-100.00,NNW,338,10.0,11.0,-999,-99.99,,,-99.99,,2013-02-26 05:32:00,
2013-02-25 23:43:00,29.0,-99.9,-100.00,NNW,338,10.0,11.0,-999,-99.99,,,-99.99,,2013-02-26 05:43:00,
2013-02-25 23:52:00,29.0,-99.9,-100.00,NNW,338,10.0,11.0,-999,-99.99,,,-99.99,,2013-02-26 05:52:00,